Location: Gökben Yaylas?
(36.8988°N, 29.6291°E)
Time: 07:44:56
(UTC+00:00)

Daily predictions for brighter satellites

Satellite Brightness Start Highest point End
(mag) Time Altitude Azimuth Time Altitude Azimuth Time Altitude Azimuth
Cosmos 1697 Rocket 2.9 17:27:08 10° NNW 17:32:45 79° WSW 17:38:20 10° SSE
Milstar 3 3.5 17:28:04 10° WSW 17:34:13 40° S 17:41:19 10° ESE
ASTEX 1 3.6 17:29:42 10° SSE 17:34:32 57° E 17:39:23 10° N
ATLAS 3B R/B 3.0 17:32:27 10° NNW 17:40:09 89° WSW 17:47:18 10° SSE
Sich 1 Rocket 3.5 17:36:39 10° S 17:41:00 87° E 17:45:22 10° N
Cosmos 1607 4.2 17:35:29 10° SW 17:41:35 76° WNW 17:47:50 10° NNE
ODIN 4.4 17:39:07 10° SSE 17:42:01 81° E 17:44:57 10° N
SL-4 R/B 3.9 17:42:50 10° W 17:45:45 21° SW 17:48:44 10° S
Cosmos 1536 Rocket 3.9 17:43:38 10° NNW 17:48:00 68° W 17:52:21 10° S
Meteor 1-27 4.3 17:42:32 10° S 17:48:02 57° E 17:53:30 10° NNE
SL-16 R/B 4.2 17:46:28 10° NNE 17:49:05 13° NE 17:51:42 10° E
ERS-1 Rocket 3.6 17:44:46 10° SE 17:49:23 40° ENE 17:54:03 10° N
IRAS Rocket 4.5 17:44:27 10° SE 17:49:44 53° ENE 17:55:04 10° N
Cosmos 1782 2.9 17:47:34 10° SSE 17:50:53 41° E 17:54:13 10° NNE
Cosmos 1459 Rocket 4.1 17:47:15 10° S 17:53:30 85° W 17:59:40 10° N
Resurs 01 Rocket 4.2 17:51:51 10° SW 17:55:06 20° W 17:58:23 10° NW
Okean 2 Rocket 4.4 17:54:44 10° SSW 17:59:00 43° W 18:03:17 10° N
COSMOS 2406 3.5 17:55:14 10° S 18:00:38 44° ESE 18:06:03 10° NE
CSL-04 Rocket 3.9 17:57:25 10° S 18:02:55 77° WSW 18:08:22 10° NNW
Cosmos 1802 Rocket 3.9 17:56:50 10° S 18:03:00 84° E 18:09:10 10° N
Cosmos 1980 Rocket 2.2 17:58:26 10° NNW 18:04:09 82° ENE 18:09:24 12° SSE
CZ-4B R/B 3.9 18:02:01 10° S 18:06:01 84° WSW 18:10:04 10° NNW
Cosmos 2228 3.0 18:02:12 10° S 18:06:12 55° E 18:10:13 10° NNE
CZ-4 R/B 1.0 18:02:59 10° SSE 18:06:36 90° NE 18:10:14 10° NNW
Cosmos 1992 Rocket 4.0 18:01:56 10° S 18:07:02 60° ESE 18:12:09 10° NNE
Cosmos 1455 Rocket 3.2 18:05:47 10° S 18:10:10 77° W 18:14:35 10° N
BREEZE-M DEB (TANK) 4.0 18:07:10 10° NW 18:10:13 46° NE 18:16:16 15° ESE
Terra 1.9 18:07:08 14° SSE 18:10:59 56° ENE 18:15:36 10° N
USA 305 2.5 18:07:24 10° NW 18:11:30 78° SW 18:13:40 22° SE
USA 186 3.8 18:12:43 11° ENE 18:12:43 11° ENE 18:13:31 10° NE
SL-08 R/B 3.5 18:08:02 10° NNE 18:12:41 49° E 18:17:11 10° S
NOSS 3-3 (A) 4.1 18:08:24 10° SW 18:13:18 61° NW 18:19:00 10° NNE
Cosmos 1461 2.4 18:09:48 10° SSW 18:13:28 68° ESE 18:17:09 10° NE
Cosmos 2084 Rocket 3.8 18:10:19 10° NNW 18:14:24 48° NE 18:16:51 22° ESE
Okean O Rocket 2.7 18:15:17 19° ESE 18:17:08 27° ENE 18:20:44 10° NNE
Cosmos 1892 Rocket 3.4 18:13:28 10° N 18:17:47 82° E 18:21:21 15° S
Cosmos 2333 Rocket 3.8 18:15:21 10° N 18:19:32 20° NE 18:22:28 14° E
SKYMED 3 4.2 18:15:36 10° NNE 18:19:33 74° ESE 18:23:31 10° S
Cosmos 1743 2.0 18:17:19 10° N 18:20:20 80° W 18:22:13 20° S
Delta 2 Rocket 2.4 18:17:15 10° W 18:20:22 69° S 18:21:37 31° ESE
Cosmos 909 Rocket 4.3 18:14:07 10° SW 18:20:36 75° WNW 18:26:56 10° NNE
Cosmos 1544 Rocket 4.2 18:22:13 24° SE 18:24:02 34° E 18:27:56 10° NNE
CZ-4B DEB 4.3 18:19:24 10° S 18:24:51 80° WSW 18:30:24 10° NNW
Cosmos 2233 Rocket 3.9 18:20:38 10° S 18:26:50 81° E 18:33:00 10° N
CZ-4B R/B 3.2 18:23:29 16° SSE 18:28:00 77° ENE 18:33:38 10° N
Cosmos 2360 Rocket 4.2 18:26:40 10° NNE 18:29:38 14° NE 18:32:15 11° E
Cosmos 1437 Rocket 3.3 18:29:31 30° E 18:29:43 30° E 18:32:53 10° NNE
BREEZE-M DEB (TANK) 3.7 18:30:59 10° WNW 18:33:44 44° SW 18:36:42 23° SSE
BREEZE-M DEB (TANK) 3.4 18:29:34 10° WSW 18:36:56 66° NW 18:39:35 10° NE
Okean-O 3.0 18:37:33 32° SE 18:39:06 46° ENE 18:43:17 10° N
Helios 1A Rocket 4.1 18:36:48 10° N 18:39:37 31° WNW 18:42:25 10° SW
Cosmos 2219 Rocket 4.4 18:40:41 10° NNE 18:42:14 11° NE 18:43:46 10° ENE
GEOS 3 Rocket 3.7 18:41:51 28° SSE 18:44:48 82° WSW 18:50:11 10° NW
USA 215 4.4 18:42:24 13° S 18:47:22 32° SW 18:53:07 10° WNW
ADEOS 3.6 18:44:23 22° S 18:47:50 76° WSW 18:53:03 10° NNW
Cosmos 1758 Rocket 3.9 18:43:36 10° N 18:47:52 46° E 18:48:50 39° ESE
Gbstr 26 Del rocket 3.7 18:47:23 10° WNW 18:52:03 45° SW 18:53:24 34° S
Cosmos 220 Rocket 3.6 18:56:12 41° S 18:57:32 77° ESE 19:01:37 10° NNE
Cosmos 2082 Rocket 4.4 18:56:24 10° WSW 19:01:07 26° WNW 19:05:51 10° N
Cosmos 2322 Rocket 3.4 18:57:45 10° N 19:02:33 27° ENE 19:04:02 24° E
Tsikada Rocket 4.2 18:58:26 10° NNW 19:04:32 68° W 19:08:37 22° S
Cosmos 2237 4.4 19:01:17 10° NNW 19:06:59 69° WSW 19:09:28 34° S
DELTA 2 R/B (1) 3.7 19:04:48 10° WNW 19:10:22 70° N 19:12:59 32° E
Cosmos 2369 4.2 19:05:54 10° NNW 19:11:28 53° WSW 19:14:07 30° SSW
Cosmos 1602 Rocket 3.9 19:07:39 10° N 19:11:44 46° ENE 19:11:44 46° ENE
CZ-4B R/B 3.6 19:15:18 34° NNE 19:15:18 34° NNE 19:17:40 10° N
Cosmos 2098 Rocket 3.2 19:16:48 60° ESE 19:17:01 61° E 19:21:21 10° NNE
Ariane Rocket 3.3 19:18:58 45° E 19:19:29 47° ENE 19:24:20 10° N
Cosmos 2151 2.7 19:18:54 10° N 19:23:00 84° W 19:23:01 84° WSW
Spot 2 Rocket 4.1 19:22:56 33° SSW 19:24:48 50° W 19:29:41 10° NNW
Cosmos 1626 Rocket 4.2 19:23:39 10° NNW 19:27:54 51° W 19:28:45 44° SW
SPOT 3 Rocket 3.4 19:28:51 66° SE 19:29:34 80° ENE 19:34:43 10° N
Cosmos 2278 3.7 19:24:10 10° NNW 19:29:51 66° ENE 19:30:44 57° ESE
Cosmos 1763 Rocket 3.5 19:31:03 61° E 19:31:03 61° E 19:36:10 10° NNE
SL-16 R/B 2.1 19:28:14 10° NNW 19:33:55 88° WSW 19:34:53 63° SSE
Meteor 1-5 Rocket 4.3 19:29:11 10° N 19:34:57 60° E 19:35:37 56° ESE
Cosmos 1464 Rocket 3.8 19:34:03 53° SSE 19:35:33 79° E 19:41:44 10° N
Cosmos 1606 Rocket 3.8 19:40:19 61° NNE 19:40:19 61° NNE 19:43:56 10° N
USA 186 4.5 19:42:50 15° WNW 19:42:50 15° WNW 19:43:41 10° NW
CZ-4B R/B 3.2 19:43:25 86° NE 19:43:25 86° NE 19:48:10 10° NNW
Terra 4.4 19:46:48 10° WSW 19:48:49 13° W 19:50:50 10° WNW
Okean O Rocket 3.4 19:52:31 21° WSW 19:53:14 22° W 19:56:38 10° NW
IRS-P2 Rocket 4.5 19:53:48 78° ENE 19:53:48 78° ENE 19:59:02 10° N
Cosmos 1428 Rocket 4.3 19:50:55 10° N 19:57:07 74° E 19:57:31 71° ESE
Cosmos 1777 Rocket 4.0 19:58:21 10° NNW 20:03:12 77° NW 20:03:12 77° NW
Cosmos 1833 4.4 20:02:21 50° WSW 20:03:40 65° WNW 20:09:17 10° NNE
Cosmos 2333 Rocket 2.5 19:58:36 10° NNW 20:04:10 55° WSW 20:04:29 54° WSW
Chandra Rocket (1) 4.0 19:51:49 10° W 20:07:12 42° SSW 20:07:14 42° SSW
Cosmos 1503 Rocket 4.2 20:08:21 10° NNW 20:12:49 67° NNW 20:12:49 67° NNW
Cosmos 2360 Rocket 2.2 20:08:36 10° NNW 20:13:59 78° WNW 20:13:59 78° WNW
Cosmos 2034 Rocket 4.0 20:13:54 69° SW 20:14:38 78° W 20:21:00 10° N
Cosmos 2333 4.3 20:18:32 10° NNW 20:23:47 74° NW 20:23:47 74° NW
Cosmos 2219 Rocket 2.4 20:21:23 10° NNW 20:26:24 68° N 20:26:24 68° N
Cosmos 540 Rocket 4.4 20:28:06 41° W 20:28:29 42° WNW 20:33:21 10° N
Cosmos 1354 Rocket 4.5 20:23:18 10° NNW 20:27:29 57° N 20:27:29 57° N
Cosmos 2279 Rocket 4.5 20:32:07 48° ENE 20:32:07 48° ENE 20:37:12 10° NNE
Cosmos 1634 Rocket 4.0 20:37:56 76° NNE 20:37:56 76° NNE 20:43:36 10° N
Aureole 1 Rocket 4.1 20:38:31 10° NNW 20:44:26 72° NE 20:44:26 72° NE
Cosmos 2322 Rocket 3.3 20:41:24 10° NW 20:45:49 36° W 20:45:49 36° W
NOSS 3-4 (A) 4.3 20:48:04 10° NW 20:55:03 52° WSW 20:55:06 52° WSW
NOSS 3-4 (C) 4.3 20:48:43 10° NW 20:55:43 53° WSW 20:55:45 53° WSW
Cosmos 2026 Rocket 4.4 20:51:12 10° NNW 20:57:08 57° W 20:57:08 57° W
USA 234 3.8 20:57:43 10° NE 21:02:17 47° ENE 21:02:17 47° ENE
Cosmos 44 4.5 20:59:08 10° NNW 21:02:45 43° NNW 21:02:45 43° NNW
Cosmos 2237 Rocket 4.0 21:01:03 10° N 21:05:16 21° NE 21:05:22 21° ENE
Cosmos 2227 Rocket 4.3 21:14:03 16° ENE 21:14:03 16° ENE 21:15:30 10° NE
COSMOS 2428 3.5 21:13:22 10° NNW 21:17:37 48° N 21:17:37 48° N
CZ-2C R/B 4.4 21:24:44 10° NNE 21:28:28 37° NE 21:28:28 37° NE
Cosmos 2297 Rocket 3.1 21:46:14 45° N 21:46:14 45° N 21:50:12 10° NNE
NOSS 0 Rocket 4.4 21:42:07 10° NNW 21:46:51 55° NNW 21:46:51 55° NNW
ATLAS 5 CENTAUR R/B 4.1 22:02:47 38° E 22:02:47 38° E 22:11:58 10° NE
ACS3 Solar Sail 3.1 21:58:45 10° NNE 22:02:41 29° ENE 22:02:41 29° ENE
CZ-2C R/B 3.8 22:39:09 37° NNW 22:39:09 37° NNW 22:42:16 10° NNW
SL-16 R/B 3.5 22:33:22 10° N 22:38:26 32° ENE 22:38:56 32° ENE
Cosmos 1553 Rocket 4.3 22:40:52 65° NE 22:40:52 65° NE 22:46:26 10° N
Lacrosse 4 Rocket 4.1 22:42:44 15° NNW 22:42:44 15° NNW 22:43:51 10° N
BREEZE-M DEB (TANK) 4.4 22:23:25 10° NW 22:41:13 79° NNE 22:41:47 74° E
SeaSat 1 3.7 22:42:55 37° NNE 22:42:55 37° NNE 22:46:35 10° N
USA 234 4.4 22:41:05 10° NNE 22:46:54 36° NNW 22:49:36 26° WNW
Cosmos 2237 Rocket 3.5 22:44:07 10° NNW 22:47:09 31° NW 22:47:09 31° NW
Cosmos 2227 Rocket 3.1 22:55:49 41° NW 22:55:49 41° NW 23:00:17 10° N
Cosmos 2263 Rocket 2.8 23:03:56 50° NNW 23:03:56 50° NNW 23:08:19 10° NNE
Cosmos 1125 Rocket 4.2 23:08:27 10° N 23:12:45 52° NNE 23:12:45 52° NNE
Cosmos 1745 Rocket 4.2 23:11:41 10° N 23:17:46 60° E 23:18:00 60° E
Resurs 1-4 Rocket 4.5 23:23:18 10° ENE 23:25:28 12° E 23:27:04 11° ESE
CENTAUR R/B 2.6 23:31:16 53° E 23:31:16 53° E 23:36:43 10° NE
Cosmos 1844 Rocket 3.4 23:33:40 42° E 23:33:40 42° E 23:38:43 10° NE
Cosmos 1417 Rocket 4.4 23:35:17 74° WNW 23:35:17 74° WNW 23:41:12 10° N
Nimbus 7 Rocket 4.3 23:31:26 10° NNE 23:37:29 88° ESE 23:37:29 88° ESE
Cosmos 2082 3.8 23:38:39 66° NNW 23:38:39 66° NNW 23:43:47 10° NNE
Cosmos 2208 Rocket 4.1 23:44:53 72° N 23:44:53 72° N 23:49:38 10° NNE
ACS3 Solar Sail 2.7 23:40:59 10° N 23:46:10 34° WNW 23:46:10 34° WNW
Cosmos 1953 4.1 23:45:06 10° N 23:46:58 27° NNE 23:46:58 27° NNE
Cosmos 1633 Rocket 4.1 23:45:48 10° N 23:49:40 39° ENE 23:49:40 39° ENE
IDEFIX/ARIANE 42P 2.5 23:47:46 10° N 23:52:42 77° NNW 23:52:42 77° NNW
H-2A R/B 4.3 23:51:57 10° NE 23:55:44 19° E 23:58:27 14° SE
